星链-31030 (STARLINK-31030 )

导读 | 豆包AI

STARLINK-31030是美国SpaceX公司星链星座的一颗低轨通信卫星,于2023年12月8日发射。作为星链全球宽带互联网星座的组成部分,它运行于约550公里近地轨道,采用平板设计与氪工质霍尔推进器,具备自主避撞能力。卫星搭载Ku/Ka波段通信载荷,通过星间链路实现全球高速互联,设计寿命约5-7年,寿命末期会主动离轨再入大气层烧毁,保障太空环境安全。

基本信息
目录编号:
58542
目录名称:
STARLINK-31030
国际标识:
2023-192M
轨道中心:
EARTH
卫星名称:
星链-31030
卫星全名:
星链-31030 (STARLINK-31030 )
卫星状态:
在轨 (已飞行874 天)
发射日期:
2023-12-08 UTC
国别 :
美国 (US)
星等 :
--
轨道信息
数据来源 国际轨道数据
星历时间: 2026-04-30T22:00:02+0800
7小时前
查看轨道信息
半长轴: 6840.934km
偏心率: 0.0001392
轨道倾角: 53.159°
近地点辐角 72.006°
升交点赤经 181.694°
平近点角 179.149°
近地点: 461.844km
远地点: 463.75km
周期: 93.850分钟
每日圈数: 15.343687
详细信息
固有亮度:
5
最大亮度:
0.3
卫星平台:
Starlink v2.0 mini
覆盖范围:
全球
运营商:
太空探索技术公司
运营商所在国:
美国
制造商(研发单位):
太空探索技术公司
制造商所在国:
美国
使用方式:
暂无
卫星简介
星链(Starlink)计划是由太空探索技术公司(SpaceX)提出的一个巨型低轨卫星互联网星座项目,计划在2019年至2024年间在太空搭建由约1.2万颗卫星组成的“星链”网络,其中1584颗将部署在地球上空550千米处的近地轨道,并从2020年开始工作。该卫星仍在工作。
2D轨道图
3D轨道图
轨道高度分析图
轨道倾角分析图
轨道综合分析图
查看轨道综合分析图